Wind_Speed
11 8 5 3 3 2 4 7 7 5 4 6 6 7 5 6 8 10 9 10 10 11 11 11 13 15 17 18 20 20 19 19 19 19 18 18 17 17 16 15 14 13 12 12 11 10 11
13 11 9 6 3 2 4 6 6 7 5 6 7 7 5 5 5 7 9 8 8 8 9 8 8 9 12 13 18 17 17 16 15 14 14 13 14 13 14 14 14 14 14 13 13 13 15
15 14 13 9 7 5 5 6 5 5 5 6 6 7 5 5 5 4 6 6 6 6 6 7 7 7 8 9 12 13 14 15 14 11 9 10 12 12 13 13 12 16 16 15 17 18 16
18 16 16 13 11 7 7 5 5 3 3 4 5 6 4 3 5 4 3 4 5 6 5 5 5 4 5 4 6 9 11 13 13 9 8 9 11 13 13 12 12 15 17 18 20 21 21
21 19 18 17 15 13 9 9 7 6 3 1 2 3 4 2 1 1 2 2 3 5 6 4 2 2 2 2 3 6 10 11 11 10 9 12 13 13 13 13 14 16 19 22 23 22 23
25 22 19 19 17 15 13 11 11 10 9 5 4 3 5 2 1 3 2 2 1 3 5 5 3 3 3 3 5 7 9 11 11 9 11 12 11 12 14 15 16 17 20 23 23 23 25
28 25 23 21 20 18 17 15 13 12 11 11 8 7 7 7 2 2 5 4 5 5 6 5 4 6 3 5 7 8 10 11 12 11 13 11 13 15 14 13 16 18 21 22 25 23 25
30 29 26 24 23 21 21 20 16 15 13 13 13 10 10 9 8 4 4 5 7 6 6 5 6 6 7 6 7 8 11 12 12 12 11 13 15 15 15 16 17 20 23 24 25 27 28
29 27 25 26 27 24 23 21 18 17 16 14 13 13 12 11 10 8 6 7 7 7 7 6 7 6 7 7 8 10 12 13 13 11 12 16 17 17 18 20 22 25 26 26 27 26 29
39 38 37 31 31 29 25 24 21 21 18 15 14 13 13 12 12 9 8 8 7 6 6 6 6 7 8 8 11 13 12 12 12 14 16 18 20 20 22 23 25 27 28 28 29 29 31
37 35 34 34 32 32 30 27 23 23 21 19 16 13 13 13 13 11 10 8 7 7 7 6 7 7 10 12 13 9 10 12 15 21 23 22 22 23 24 26 28 30 31 32 33 33 34
45 41 41 40 36 34 33 30 27 26 22 21 18 16 14 14 14 12 12 9 9 10 10 10 8 9 10 11 11 12 14 18 22 22 20 22 24 26 28 29 31 33 36 37 39 40 41
43 47 49 47 40 42 37 35 33 30 28 26 21 19 17 16 15 14 12 12 11 11 11 9 9 9 10 11 12 14 18 19 18 18 20 24 27 27 29 31 32 34 39 43 45 44 44
43 43 46 48 49 42 41 35 33 33 29 26 24 22 20 19 17 16 14 15 13 14 14 13 12 13 14 16 15 16 16 18 19 20 23 24 26 28 31 32 35 37 40 41 46 46 48
43 42 39 43 42 47 42 39 37 35 31 28 26 25 23 20 19 19 16 16 15 16 16 15 14 16 16 16 17 17 19 19 20 21 22 24 25 28 31 34 38 41 41 44 45 45 50
43 43 41 40 39 43 45 45 39 35 32 30 29 28 26 23 22 22 19 20 19 19 18 18 17 17 17 19 19 20 21 21 21 22 24 25 27 28 32 36 39 41 42 44 44 47 51
42 46 47 45 39 41 45 43 36 34 32 30 31 30 27 26 25 24 23 22 22 21 21 20 18 17 18 19 20 22 22 23 23 23 24 25 27 30 36 40 43 41 41 43 44 46 48
41 43 45 46 45 41 43 48 46 36 35 32 32 31 30 30 28 27 26 24 24 24 24 22 21 21 21 21 22 22 23 24 24 26 26 29 30 32 39 42 43 42 41 44 47 50 50
42 42 45 44 43 41 39 40 38 38 36 36 33 31 31 31 30 30 29 27 26 27 27 25 24 24 24 24 24 23 25 26 27 28 30 33 36 37 41 44 45 41 42 46 48 49 52
41 42 45 45 44 42 42 41 48 41 39 36 35 35 33 33 33 33 31 29 29 29 29 29 27 26 28 27 27 29 29 29 30 31 35 37 38 39 42 46 47 42 42 47 48 51 55
47 45 45 45 44 43 45 44 43 45 37 37 39 38 35 36 35 34 33 31 31 31 33 32 30 29 29 30 31 31 32 33 34 36 37 41 41 43 44 45 46 46 43 46 50 51 56
48 46 45 46 46 46 45 47 41 43 47 41 39 39 39 38 37 36 36 34 34 35 35 35 33 32 33 33 35 35 35 36 36 37 39 41 44 46 49 47 49 48 45 49 53 54 59
53 49 47 47 48 48 47 46 50 45 50 49 42 40 40 41 39 40 39 38 37 37 37 37 36 36 37 37 37 39 39 39 41 40 40 42 45 49 51 51 52 50 50 52 56 59 62
58 54 51 49 50 50 51 51 49 53 50 43 41 40 42 40 41 42 42 41 41 40 40 40 39 39 40 40 40 41 40 41 41 41 40 43 46 49 51 49 52 52 52 55 59 61 63
59 55 54 53 51 52 52 52 54 52 49 56 57 47 41 40 41 42 43 42 44 44 44 43 42 42 42 42 43 42 41 43 43 41 40 43 45 49 49 50 50 52 54 58 60 60 66
62 58 57 56 54 53 52 53 53 55 56 54 55 58 51 44 39 40 41 42 46 45 46 44 44 44 44 44 44 44 44 45 44 45 44 45 44 47 49 52 55 55 57 62 64 66 70
67 62 61 57 55 54 53 54 54 55 53 54 53 54 59 50 45 44 47 47 48 48 47 45 45 46 46 46 47 46 46 44 44 41 43 46 45 48 51 55 55 59 62 65 66 71 74
70 66 62 57 56 57 56 55 54 54 54 54 53 53 57 56 51 50 49 47 49 49 49 49 49 48 47 48 47 46 47 45 44 48 47 47 48 50 54 58 61 62 65 68 72 74 75
73 71 70 63 60 59 58 55 53 53 53 52 53 53 56 59 59 54 53 51 51 49 50 52 51 50 50 49 48 49 47 48 49 52 50 50 52 52 56 58 62 65 69 72 74 75 71
Wind_Direction
209 209 200 176 126 102 115 105 90 82 63 45 48 50 55 58 62 68 71 81 92 88 83 77 76 84 83 82 79 76 74 71 69 69 67 61 59 55 50 46 37 38 27 21 8 352 340
219 223 221 208 197 167 149 133 100 82 67 63 56 53 66 53 44 64 63 69 79 89 83 66 58 69 87 89 80 70 65 61 58 54 55 51 44 39 34 30 22 20 14 13 3 353 345
220 226 233 238 226 217 211 170 141 104 77 71 68 58 53 60 55 68 64 66 69 76 83 73 54 47 66 79 72 59 54 46 42 42 37 32 24 15 7 2 10 10 9 5 356 352 344
220 226 233 239 248 243 244 214 209 162 116 70 67 64 55 21 42 53 72 84 68 62 56 63 60 50 53 64 60 43 35 30 25 25 26 10 0 356 356 355 359 360 359 358 355 350 343
227 225 232 237 242 253 255 252 238 239 207 182 67 39 37 22 8 56 63 88 82 45 30 37 35 33 44 358 347 357 5 5 6 3 1 358 355 355 355 354 356 360 1 355 354 352 342
228 230 233 241 245 247 255 261 258 249 255 246 254 290 320 348 23 237 210 225 259 330 342 353 16 340 319 312 315 310 326 343 348 346 346 347 351 356 355 350 357 353 353 354 355 348 342
234 229 233 237 248 254 253 255 262 270 265 268 266 284 294 312 292 243 227 232 251 282 299 315 311 330 319 303 300 313 318 333 334 331 334 341 343 344 350 349 344 345 350 350 347 345 340
234 236 233 238 242 244 251 254 258 267 276 271 275 280 291 296 300 279 260 245 262 268 282 289 291 309 314 317 320 323 327 325 327 325 333 338 342 344 342 341 346 342 342 341 343 345 343
228 233 238 243 246 245 247 252 254 259 266 274 272 276 288 296 297 288 272 281 268 271 283 275 286 294 302 310 315 319 326 328 325 334 337 340 342 341 337 334 337 339 338 337 340 344 342
242 241 241 240 244 246 250 252 252 258 259 262 270 275 281 287 288 292 286 284 278 270 290 285 282 291 302 308 316 321 329 334 336 334 331 333 334 336 333 332 335 335 334 333 337 338 339
234 243 240 237 244 243 243 247 248 254 257 261 260 262 273 274 277 283 290 294 287 288 292 291 299 302 305 310 316 323 333 336 331 327 322 322 324 327 329 329 330 329 328 329 330 333 336
239 234 241 237 240 244 243 244 250 248 250 253 255 253 257 259 266 272 279 281 287 284 292 292 286 302 310 312 312 309 312 317 319 319 320 319 318 321 323 324 326 327 326 324 328 330 336
240 240 242 241 242 240 243 244 241 249 251 253 250 248 248 253 254 263 268 272 278 289 292 290 288 292 309 310 309 309 310 316 320 319 319 319 318 320 321 320 321 325 323 324 326 329 332
239 239 238 240 241 240 236 240 244 246 244 243 247 249 247 247 246 253 255 268 275 285 293 291 288 291 299 306 303 307 312 316 319 317 316 315 317 320 319 320 320 323 323 324 325 325 326
238 232 234 238 238 235 232 236 242 245 243 241 243 247 245 246 248 251 256 261 269 280 286 290 290 294 298 298 300 305 309 311 314 316 317 319 321 323 322 321 320 323 322 322 321 320 322
236 232 236 239 242 240 241 233 235 239 239 241 242 243 244 245 246 251 255 261 267 273 279 284 290 299 301 304 305 308 311 315 316 318 321 323 325 326 324 323 322 321 320 319 321 322 322
235 234 236 241 243 242 237 228 235 236 238 238 239 240 243 245 247 250 251 256 263 268 274 280 287 292 298 305 308 310 315 317 319 321 324 328 329 328 326 325 323 321 317 316 318 321 321
235 234 236 236 240 241 239 236 227 236 241 238 239 240 241 245 247 250 252 255 260 266 270 277 282 285 291 298 303 308 311 314 317 319 321 322 327 330 327 325 325 322 317 315 317 319 321
240 236 235 234 235 239 242 228 232 233 236 239 239 240 242 245 247 250 252 255 258 263 268 272 277 283 288 293 296 301 306 311 315 317 320 323 325 328 328 325 326 320 317 315 315 316 320
237 238 236 235 234 235 234 234 232 237 238 238 242 242 243 247 250 251 253 255 259 263 266 270 275 280 285 289 294 299 304 309 312 314 316 318 322 323 325 323 323 315 316 314 315 316 315
230 233 233 233 235 236 233 235 240 230 239 242 240 242 244 247 249 252 254 256 261 263 266 269 274 279 283 288 292 298 301 306 308 312 314 315 318 319 323 321 315 311 313 313 313 316 318
229 230 233 231 232 235 235 231 234 234 241 244 245 243 244 245 248 252 255 256 259 263 265 269 273 277 281 286 291 294 298 302 305 307 310 314 316 317 321 317 313 311 310 314 316 318 321
228 229 232 234 233 231 235 239 236 237 236 244 248 245 247 246 249 252 254 256 260 263 266 269 274 279 282 286 291 294 297 302 304 308 311 313 315 316 319 317 314 315 317 315 315 320 322
224 227 229 232 234 234 232 234 236 235 237 237 245 248 246 248 250 252 255 258 262 264 267 269 274 277 280 285 287 291 297 299 301 305 308 311 311 311 313 313 313 316 316 315 316 319 321
223 227 230 230 232 234 234 237 234 236 240 243 245 249 253 252 252 255 257 260 263 266 269 272 273 277 280 283 287 291 294 295 299 302 306 307 305 307 310 311 313 314 316 317 317 320 319
224 230 231 232 233 235 235 235 234 237 242 245 245 245 252 254 254 256 261 264 265 269 270 272 274 277 280 283 287 290 295 297 300 305 307 307 307 307 310 310 313 316 314 314 314 317 318
225 227 232 231 233 237 237 236 238 240 242 244 246 247 246 254 254 259 263 265 269 269 270 271 275 278 282 285 290 293 293 294 299 304 304 306 306 305 309 310 313 313 312 313 316 315 316
225 226 228 232 235 235 237 237 240 239 242 243 247 247 244 248 254 257 261 266 268 271 272 273 273 275 280 282 286 291 290 292 297 302 303 303 304 308 307 309 311 311 311 311 312 315 316
230 227 227 231 237 239 236 240 240 241 243 244 246 250 251 251 249 257 258 261 265 266 270 272 276 278 280 283 285 285 285 289 292 300 300 298 303 305 306 306 307 308 309 310 312 313 313
Height
5879 5880 5881 5881 5882 5884 5884 5884 5884 5884 5883 5883 5882 5882 5882 5881 5880 5878 5878 5878 5877 5877 5876 5875 5874 5872 5871 5871 5869 5868 5867 5866 5865 5864 5862 5861 5860 5858 5857 5855 5853 5850 5848 5846 5843 5842 5839
5877 5879 5880 5880 5882 5883 5883 5884 5884 5884 5884 5883 5882 5882 5882 5881 5880 5880 5879 5878 5878 5877 5877 5876 5875 5874 5872 5872 5869 5869 5868 5866 5865 5863 5862 5861 5859 5857 5855 5853 5851 5848 5846 5844 5840 5838 5835
5875 5877 5879 5880 5881 5881 5883 5883 5883 5883 5884 5884 5883 5882 5882 5881 5880 5880 5879 5879 5878 5878 5877 5876 5876 5875 5874 5873 5871 5869 5868 5866 5865 5863 5862 5860 5858 5856 5854 5851 5849 5847 5845 5841 5838 5835 5832
5872 5874 5876 5878 5879 5880 5881 5882 5883 5883 5883 5883 5883 5882 5881 5881 5880 5880 5879 5879 5878 5878 5877 5876 5875 5874 5874 5873 5871 5869 5868 5866 5865 5863 5861 5859 5856 5855 5852 5849 5847 5845 5842 5839 5835 5832 5828
5869 5871 5873 5875 5877 5879 5879 5881 5881 5882 5882 5882 5882 5883 5881 5880 5879 5879 5879 5878 5877 5878 5877 5875 5874 5873 5873 5872 5871 5869 5867 5865 5864 5862 5860 5858 5855 5853 5850 5848 5845 5842 5840 5836 5832 5828 5823
5864 5867 5870 5872 5874 5876 5877 5878 5880 5880 5881 5881 5881 5881 5881 5880 5878 5877 5877 5877 5876 5876 5876 5874 5873 5873 5871 5870 5868 5867 5866 5864 5862 5860 5859 5856 5854 5851 5848 5846 5843 5840 5836 5833 5829 5825 5819
5862 5862 5865 5868 5871 5873 5875 5875 5877 5878 5878 5879 5879 5880 5879 5879 5878 5876 5876 5875 5877 5876 5874 5873 5872 5870 5869 5868 5867 5865 5864 5862 5860 5859 5857 5854 5852 5849 5844 5841 5839 5836 5833 5830 5825 5821 5816
5857 5859 5860 5863 5866 5869 5871 5872 5874 5875 5876 5876 5877 5878 5877 5877 5877 5876 5875 5873 5873 5874 5872 5871 5870 5869 5867 5866 5865 5864 5863 5861 5858 5856 5854 5853 5849 5845 5842 5839 5836 5832 5829 5825 5821 5816 5811
5850 5854 5856 5858 5861 5864 5866 5868 5870 5871 5873 5874 5874 5874 5875 5874 5874 5874 5872 5872 5871 5870 5870 5868 5867 5867 5866 5865 5863 5862 5860 5858 5856 5854 5851 5849 5847 5843 5839 5836 5832 5828 5824 5820 5817 5812 5807
5843 5847 5850 5853 5856 5859 5861 5863 5865 5867 5869 5870 5871 5871 5871 5872 5874 5871 5870 5869 5868 5868 5867 5867 5865 5864 5863 5862 5861 5858 5856 5855 5853 5851 5849 5847 5843 5840 5837 5833 5829 5824 5820 5815 5811 5807 5802
5836 5839 5842 5846 5849 5853 5855 5858 5859 5862 5864 5867 5867 5867 5867 5869 5869 5868 5868 5867 5866 5866 5865 5865 5863 5861 5860 5859 5858 5855 5853 5851 5850 5847 5845 5843 5840 5836 5832 5828 5824 5820 5814 5810 5805 5800 5795
5827 5831 5835 5838 5841 5846 5848 5851 5854 5857 5859 5861 5863 5863 5862 5864 5865 5864 5864 5863 5864 5864 5862 5861 5860 5858 5857 5856 5854 5852 5850 5848 5845 5843 5840 5837 5834 5831 5827 5823 5818 5813 5808 5803 5797 5791 5785
5819 5822 5826 5830 5833 5837 5841 5845 5847 5850 5853 5856 5857 5858 5858 5859 5860 5860 5859 5860 5861 5860 5859 5858 5856 5855 5853 5852 5850 5848 5846 5843 5840 5838 5834 5832 5829 5825 5822 5818 5812 5807 5801 5795 5790 5782 5778
5810 5812 5815 5820 5825 5828 5832 5836 5839 5843 5846 5848 5850 5851 5853 5854 5855 5856 5854 5856 5855 5855 5855 5854 5853 5851 5850 5848 5846 5843 5841 5838 5835 5832 5829 5826 5823 5819 5816 5812 5807 5801 5795 5789 5780 5775 5769
5800 5804 5807 5812 5815 5819 5824 5827 5831 5835 5839 5841 5843 5845 5847 5848 5849 5851 5850 5850 5850 5850 5849 5849 5848 5847 5845 5842 5841 5839 5836 5833 5830 5827 5825 5820 5817 5813 5809 5805 5800 5793 5786 5780 5772 5768 5758
5789 5795 5799 5803 5806 5809 5814 5818 5823 5827 5830 5833 5836 5838 5840 5841 5843 5844 5844 5844 5844 5844 5844 5843 5842 5841 5839 5837 5835 5832 5830 5828 5825 5822 5818 5815 5811 5807 5802 5797 5793 5786 5779 5770 5764 5758 5750
5780 5785 5789 5794 5798 5801 5805 5809 5814 5818 5821 5825 5828 5830 5833 5835 5836 5837 5837 5837 5837 5837 5838 5837 5836 5834 5833 5832 5829 5827 5825 5822 5819 5816 5812 5809 5806 5802 5794 5789 5783 5778 5770 5762 5755 5750 5742
5770 5774 5779 5784 5789 5792 5796 5800 5804 5809 5813 5817 5820 5822 5825 5827 5830 5829 5830 5830 5831 5830 5830 5830 5829 5828 5826 5825 5823 5820 5818 5814 5811 5809 5806 5802 5798 5793 5787 5780 5774 5769 5761 5753 5745 5739 5733
5760 5764 5769 5774 5779 5783 5787 5792 5797 5801 5804 5808 5811 5813 5817 5818 5820 5822 5822 5823 5822 5823 5823 5822 5822 5821 5819 5818 5816 5813 5810 5808 5805 5801 5797 5794 5789 5784 5778 5772 5765 5759 5751 5743 5737 5730 5724
5750 5755 5760 5764 5769 5774 5778 5782 5787 5792 5796 5798 5802 5805 5809 5809 5812 5814 5814 5814 5815 5815 5815 5815 5814 5813 5812 5810 5808 5806 5803 5801 5797 5793 5789 5784 5782 5776 5771 5762 5755 5750 5743 5735 5728 5720 5711
5737 5743 5748 5753 5759 5764 5768 5773 5777 5781 5786 5790 5793 5796 5799 5800 5803 5805 5806 5806 5807 5807 5808 5807 5806 5805 5804 5802 5800 5798 5794 5792 5789 5784 5780 5776 5772 5766 5761 5754 5747 5742 5736 5727 5719 5712 5703
5723 5730 5737 5742 5747 5752 5758 5762 5767 5771 5775 5780 5783 5786 5788 5791 5793 5795 5795 5796 5797 5798 5799 5798 5797 5796 5795 5792 5791 5789 5786 5783 5781 5776 5771 5767 5761 5755 5751 5745 5737 5732 5726 5718 5708 5700 5692
5710 5716 5723 5729 5735 5740 5746 5750 5756 5760 5765 5768 5773 5775 5778 5781 5783 5785 5786 5786 5787 5788 5789 5788 5787 5787 5785 5783 5781 5779 5776 5774 5770 5767 5761 5758 5751 5744 5738 5733 5725 5721 5714 5705 5696 5688 5679
5695 5702 5708 5716 5722 5727 5733 5738 5743 5749 5754 5757 5762 5765 5768 5771 5773 5774 5776 5775 5777 5778 5778 5778 5778 5777 5775 5773 5771 5768 5767 5764 5761 5757 5753 5747 5740 5733 5727 5721 5715 5709 5702 5693 5685 5678 5668
5681 5688 5695 5701 5708 5715 5719 5725 5730 5737 5741 5746 5749 5754 5757 5760 5762 5765 5765 5765 5766 5766 5768 5768 5767 5766 5764 5763 5761 5758 5757 5754 5750 5747 5744 5738 5731 5723 5717 5710 5705 5699 5689 5681 5674 5670 5657
5666 5674 5680 5687 5694 5701 5706 5712 5717 5723 5730 5734 5737 5741 5745 5749 5753 5753 5753 5754 5755 5755 5757 5758 5756 5754 5752 5751 5749 5745 5743 5739 5736 5734 5731 5725 5720 5712 5705 5697 5690 5685 5676 5669 5662 5656 5646
5650 5660 5668 5674 5680 5688 5694 5700 5705 5711 5716 5722 5724 5727 5731 5736 5741 5740 5741 5742 5744 5744 5745 5745 5744 5743 5741 5740 5738 5736 5733 5730 5726 5723 5718 5712 5706 5699 5692 5683 5679 5671 5664 5656 5650 5645 5632
5633 5644 5654 5662 5668 5675 5682 5688 5694 5699 5704 5709 5714 5714 5718 5723 5727 5730 5731 5731 5731 5733 5733 5733 5733 5733 5730 5728 5726 5724 5720 5718 5715 5712 5707 5702 5695 5689 5680 5672 5666 5658 5650 5645 5637 5626 5617
5614 5626 5637 5648 5655 5662 5668 5675 5681 5686 5691 5695 5701 5703 5704 5707 5714 5717 5718 5718 5719 5721 5721 5718 5720 5719 5717 5716 5715 5710 5708 5705 5702 5698 5694 5688 5684 5677 5671 5662 5653 5646 5638 5631 5622 5613 5604